Total_Precipitation_Accumulation
0.43 0.64 0.78 0.97 1.17 1.31 1.47 1.53 1.62 1.75 1.90 2.11 2.12 2.25 2.48 2.82 3.12 3.33 3.41 3.42 3.37 3.36 3.18 3.06 3.04 2.87 2.64 2.43 2.32 2.17 2.03 1.77 1.55 1.47 1.26 0.99 0.82 0.76 0.68 0.62 0.60 0.59 0.59
0.45 0.73 0.93 1.22 1.46 1.60 1.71 1.82 1.91 2.21 2.63 2.99 3.39 3.72 3.89 3.90 4.10 4.21 4.20 4.07 3.94 3.79 3.56 3.48 3.31 3.05 2.85 2.61 2.37 2.17 2.11 1.91 1.70 1.64 1.57 1.27 0.96 0.71 0.54 0.49 0.45 0.44 0.43
0.59 0.74 0.96 1.28 1.50 1.65 1.84 1.97 2.24 2.85 3.61 3.93 4.21 4.77 5.05 4.79 4.58 4.46 4.37 4.28 4.27 4.20 3.96 3.83 3.54 3.25 2.94 2.66 2.39 2.16 2.02 1.91 1.76 1.61 1.64 1.46 1.16 0.82 0.60 0.45 0.38 0.34 0.36
0.68 0.82 0.98 1.26 1.56 1.86 1.94 2.11 2.61 3.35 4.00 4.44 4.94 5.44 5.64 5.62 5.49 5.06 4.58 4.13 3.80 3.62 3.50 3.37 3.17 2.94 2.63 2.39 2.17 1.94 1.81 1.83 1.68 1.50 1.34 1.24 1.06 0.88 0.70 0.50 0.40 0.35 0.36
0.69 0.83 0.97 1.18 1.35 1.62 1.99 2.25 2.79 3.47 4.13 4.80 5.42 5.79 5.98 5.93 5.54 4.78 4.03 3.61 3.32 3.03 2.80 2.65 2.51 2.33 2.14 1.96 1.83 1.74 1.61 1.54 1.43 1.28 1.15 1.09 0.97 0.79 0.67 0.58 0.46 0.42 0.40
0.56 0.71 0.89 0.99 1.26 1.52 1.81 2.23 2.54 3.16 3.83 4.39 4.89 5.04 5.17 5.09 4.67 4.21 3.70 3.33 2.92 2.44 2.08 1.87 1.71 1.59 1.47 1.43 1.42 1.36 1.31 1.25 1.20 1.11 1.00 0.93 0.91 0.82 0.72 0.62 0.54 0.51 0.48
0.51 0.73 0.97 0.92 1.14 1.46 1.80 2.18 2.57 2.96 3.46 3.95 4.40 4.62 4.72 4.50 4.04 3.62 3.22 2.78 2.35 1.95 1.61 1.41 1.30 1.24 1.17 1.08 1.08 1.05 1.03 1.01 1.01 0.98 0.90 0.84 0.78 0.74 0.70 0.68 0.64 0.56 0.48
0.54 0.68 0.86 0.93 1.15 1.37 1.66 2.01 2.35 2.67 2.87 3.06 3.37 3.58 3.72 3.55 3.21 2.73 2.29 2.00 1.75 1.51 1.32 1.18 1.08 0.94 0.81 0.77 0.77 0.78 0.78 0.79 0.85 0.85 0.83 0.82 0.79 0.74 0.67 0.64 0.64 0.65 0.59
0.57 0.64 0.77 0.89 1.12 1.40 1.66 1.92 2.06 2.21 2.38 2.48 2.53 2.58 2.68 2.56 2.32 2.04 1.76 1.49 1.24 1.05 0.93 0.82 0.74 0.69 0.62 0.58 0.57 0.59 0.62 0.65 0.71 0.75 0.78 0.82 0.84 0.83 0.75 0.68 0.63 0.66 0.67
0.61 0.63 0.70 0.77 0.88 1.02 1.29 1.51 1.63 1.71 1.77 1.82 1.86 1.87 1.88 1.79 1.69 1.54 1.34 1.12 0.95 0.81 0.69 0.58 0.51 0.50 0.50 0.49 0.45 0.45 0.48 0.51 0.56 0.60 0.65 0.70 0.75 0.78 0.78 0.77 0.73 0.66 0.63
0.65 0.62 0.65 0.65 0.71 0.76 0.92 1.12 1.27 1.30 1.37 1.44 1.40 1.34 1.39 1.34 1.26 1.21 1.13 0.98 0.86 0.75 0.65 0.57 0.53 0.49 0.45 0.42 0.41 0.40 0.43 0.48 0.49 0.47 0.50 0.55 0.55 0.58 0.59 0.58 0.56 0.53 0.51
0.69 0.63 0.59 0.54 0.58 0.63 0.69 0.79 0.90 0.91 0.95 0.99 0.99 1.04 1.07 1.07 1.02 0.93 0.84 0.70 0.61 0.57 0.53 0.47 0.46 0.45 0.41 0.39 0.37 0.35 0.33 0.32 0.34 0.34 0.36 0.37 0.37 0.39 0.39 0.39 0.38 0.37 0.35
0.82 0.67 0.54 0.46 0.49 0.56 0.61 0.65 0.69 0.70 0.71 0.70 0.74 0.81 0.84 0.85 0.80 0.70 0.66 0.60 0.52 0.49 0.47 0.42 0.39 0.38 0.36 0.31 0.29 0.28 0.24 0.21 0.21 0.21 0.22 0.24 0.25 0.26 0.25 0.26 0.25 0.26 0.25
0.94 0.74 0.63 0.54 0.55 0.60 0.60 0.61 0.61 0.59 0.60 0.61 0.65 0.71 0.71 0.70 0.68 0.59 0.50 0.46 0.42 0.42 0.43 0.40 0.35 0.28 0.24 0.21 0.21 0.23 0.19 0.17 0.16 0.15 0.15 0.16 0.17 0.18 0.18 0.17 0.18 0.21 0.26
1.00 0.86 0.77 0.73 0.67 0.62 0.58 0.60 0.66 0.65 0.64 0.66 0.65 0.66 0.61 0.59 0.57 0.54 0.48 0.42 0.37 0.35 0.33 0.29 0.27 0.23 0.19 0.17 0.17 0.19 0.16 0.14 0.13 0.12 0.11 0.11 0.13 0.14 0.13 0.14 0.17 0.23 0.28
0.97 0.90 0.86 0.87 0.77 0.69 0.62 0.58 0.65 0.69 0.69 0.69 0.66 0.64 0.61 0.58 0.53 0.47 0.44 0.38 0.32 0.26 0.24 0.22 0.21 0.19 0.16 0.15 0.14 0.13 0.14 0.14 0.14 0.12 0.11 0.11 0.09 0.08 0.08 0.10 0.14 0.21 0.25
1.11 1.09 1.12 1.10 0.99 0.86 0.76 0.72 0.73 0.74 0.74 0.77 0.73 0.71 0.64 0.57 0.52 0.40 0.35 0.33 0.30 0.24 0.19 0.16 0.15 0.17 0.16 0.12 0.09 0.09 0.11 0.13 0.15 0.16 0.14 0.09 0.06 0.08 0.11 0.10 0.09 0.11 0.12
1.38 1.39 1.35 1.23 1.11 1.00 0.92 0.84 0.77 0.80 0.84 0.82 0.77 0.68 0.56 0.47 0.42 0.39 0.33 0.28 0.25 0.23 0.20 0.16 0.14 0.14 0.12 0.08 0.06 0.06 0.09 0.12 0.13 0.13 0.13 0.13 0.11 0.09 0.08 0.07 0.08 0.12 0.15
1.36 1.27 1.19 1.14 1.08 0.98 0.90 0.79 0.72 0.70 0.73 0.69 0.63 0.57 0.50 0.45 0.42 0.40 0.37 0.32 0.26 0.21 0.16 0.14 0.13 0.14 0.12 0.06 0.04 0.05 0.08 0.10 0.09 0.07 0.08 0.09 0.11 0.09 0.08 0.08 0.12 0.16 0.19
1.06 1.04 1.00 0.96 0.91 0.83 0.74 0.66 0.61 0.57 0.55 0.53 0.51 0.45 0.42 0.42 0.42 0.36 0.33 0.29 0.24 0.20 0.14 0.13 0.14 0.13 0.13 0.06 0.03 0.04 0.06 0.09 0.08 0.09 0.10 0.10 0.08 0.07 0.07 0.08 0.15 0.22 0.21
0.88 0.87 0.86 0.86 0.74 0.60 0.54 0.54 0.51 0.48 0.39 0.35 0.39 0.39 0.38 0.37 0.36 0.33 0.31 0.30 0.26 0.24 0.21 0.19 0.19 0.16 0.10 0.06 0.03 0.02 0.05 0.07 0.08 0.10 0.14 0.15 0.08 0.06 0.06 0.09 0.16 0.22 0.20
0.75 0.74 0.68 0.60 0.52 0.45 0.47 0.49 0.46 0.37 0.30 0.30 0.35 0.37 0.35 0.29 0.28 0.30 0.31 0.28 0.26 0.24 0.23 0.22 0.20 0.17 0.13 0.08 0.04 0.02 0.02 0.03 0.08 0.13 0.14 0.14 0.11 0.09 0.11 0.14 0.18 0.20 0.27
0.56 0.58 0.52 0.47 0.45 0.44 0.45 0.44 0.39 0.33 0.31 0.32 0.34 0.33 0.29 0.26 0.26 0.27 0.28 0.26 0.24 0.20 0.19 0.19 0.18 0.16 0.15 0.10 0.02 0.01 0.01 0.02 0.06 0.10 0.12 0.14 0.16 0.18 0.27 0.27 0.23 0.29 0.42
0.44 0.44 0.42 0.40 0.42 0.39 0.38 0.37 0.31 0.30 0.33 0.35 0.33 0.29 0.28 0.27 0.25 0.22 0.19 0.19 0.19 0.16 0.16 0.17 0.16 0.16 0.16 0.10 0.04 0.04 0.04 0.04 0.06 0.09 0.17 0.27 0.32 0.35 0.39 0.42 0.45 0.48 0.49
0.43 0.42 0.40 0.37 0.33 0.32 0.29 0.26 0.25 0.26 0.29 0.29 0.27 0.27 0.26 0.24 0.22 0.17 0.13 0.12 0.11 0.07 0.08 0.10 0.10 0.12 0.10 0.05 0.03 0.04 0.05 0.04 0.06 0.09 0.24 0.41 0.46 0.47 0.46 0.44 0.44 0.47 0.45
0.38 0.38 0.33 0.32 0.28 0.25 0.23 0.21 0.20 0.19 0.24 0.26 0.23 0.20 0.20 0.19 0.15 0.15 0.14 0.08 0.04 0.03 0.02 0.02 0.03 0.04 0.06 0.05 0.03 0.03 0.06 0.06 0.10 0.17 0.36 0.46 0.47 0.47 0.43 0.39 0.36 0.36 0.36